Regional Weather Roundup
Issued by NWS

Home | Current Version | Previous Version | Graphics & Text | Print | Product List | Glossary On
Versions: 1 2 3 4 5 6 7 8 9 10 11 12 13 14 15 16 17 18 19 20 21 22 23 24 25 26 27 28 29 30 31 32 33 34 35 36 37 38 39 40 41 42 43 44 45 46 47 48 49 50
000
ASUS43 KFSD 192210
RWRSD

WEATHER ROUNDUP FOR SOUTH DAKOTA
NATIONAL WEATHER SERVICE SIOUX FALLS SD
400 PM CST MON FEB 19 2018

NOTE: "FAIR" INDICATES FEW OR NO CLOUDS BELOW 12,000 FEET WITH NO
SIGNIFICANT WEATHER AND/OR OBSTRUCTIONS TO VISIBILITY.


SDZ001>005-009-010-012>017-192300-
NORTHWEST AND NORTH CENTRAL SOUTH DAKOTA

CITY           SKY/WX    TMP DP  RH WIND       PRES   REMARKS
BUFFALO          N/A      2  -4  76 NE13      29.92R WCI -15
FAITH            N/A      2  -1  88 N15       30.01R WCI -17
MOBRIDGE       LGT SNOW   8   1  73 N15       30.03F VSB 3/4 WCI  -9
$$

SDZ012>016-024>037-041>051-057-063-072>074-192300-
SOUTHWEST AND SOUTH CENTRAL SOUTH DAKOTA

CITY           SKY/WX    TMP DP  RH WIND       PRES   REMARKS
RAPID CTY ARPT SNOW       0  -5  79 N14       29.93F VSB 1/2 WCI -19
PIERRE         LGT SNOW   8   4  83 N20       29.99F FOG     WCI -11
CUSTER         SNOW       0  -6  76 NE7       29.64F VSB 1/2 WCI -13
ELLSWORTH AFB  BLWGSNOW   1  -4  78 N12       29.92  VSB 1   WCI -15
PHILIP         LGT SNOW   5   0  79 N17       30.01R WCI -14
PINE RIDGE     LGT SNOW   4  -2  76 N13       29.87F WCI -13
SPEARFISH      LGT SNOW  -2  -8  78 NE9       29.87F WCI -18
WINNER         LGT SNOW  10   5  80 N20       29.94S WCI  -9
$$

SDZ004>011-016>023-039-040-192300-
NORTHEAST SOUTH DAKOTA

CITY           SKY/WX    TMP DP  RH WIND       PRES   REMARKS
ABERDEEN       LGT SNOW  10   5  80 N23G30    30.07S VSB 1   WCI -10
WATERTOWN      CLOUDY     9   5  84 N22G36    29.91F FOG     WCI -11
SISSETON         N/A     11   6  81 N23G32    30.04F WCI  -9
$$

SDZ017-020-022-023-036>040-048>070-192300-
SOUTHEAST SOUTH DAKOTA

CITY           SKY/WX    TMP DP  RH WIND       PRES   REMARKS
SIOUX FALLS    LGT SNOW  16  12  84 NE18G28   29.87S FOG     WCI   0
HURON          LGT SNOW  12   7  80 N20G28    29.97S WCI  -6
CHAMBERLAIN    LGT SNOW  12   8  85 N16G22    29.95S WCI  -4
MITCHELL       LGT SNOW  14  10  84 N22       29.94F FOG     WCI  -4
YANKTON        FLURRIES  17  14  88 N14       29.89R WCI   3
$$

ABBREVIATIONS USED IN REMARKS
   TC - TEMPERATURE IN CELSIUS
  WCI - WIND CHILL INDEX
   HX - HEAT INDEX
  VSB - VISIBILITY




USA.gov is the U.S. government's official web portal to all federal, state and local government web resources and services.